Location: Nairn
(57.5833°N, 3.8667°W)
Time: 04:56:45
(UTC+00:00)

Cosmos 2360 Rocket - Visible Passes

Search period start: 26 November 2020 00:00
Search period end: 06 December 2020 00:00
Orbit: 836 x 843 km, 71.0° (Epoch: 25 November)

Date Brightness Start Highest point End Pass type
(mag) Time Alt. Az. Time Alt. Az. Time Alt. Az.
26 Nov 2.6 16:56:29 10° SW 17:02:03 62° NW 17:07:41 10° NE visible
26 Nov 3.8 18:42:25 10° W 18:47:08 27° NNW 18:49:43 19° NNE visible
26 Nov 4.3 20:28:46 10° NW 20:31:29 19° NNW 20:31:29 19° NNW visible
27 Nov 2.5 16:40:42 10° SW 16:46:18 65° NW 16:51:56 10° NE visible
27 Nov 3.7 18:26:34 10° W 18:31:20 27° NNW 18:34:18 18° NNE visible
27 Nov 4.2 20:12:58 10° NW 20:16:03 20° NNW 20:16:03 20° NNW visible
28 Nov 2.5 16:24:55 10° SW 16:30:32 67° NW 16:36:10 10° NE visible
28 Nov 3.7 18:10:45 10° W 18:15:32 28° NNW 18:18:53 16° NNE visible
28 Nov 4.1 19:57:09 10° NW 20:00:38 20° N 20:00:38 20° N visible
28 Nov 5.0 21:42:06 10° NNW 21:42:23 11° NNW 21:42:23 11° NNW visible
29 Nov 3.6 17:54:55 10° W 17:59:44 28° NNW 18:03:27 15° NNE visible
29 Nov 4.0 19:41:20 10° NW 19:45:12 21° N 19:45:12 21° N visible
29 Nov 4.9 21:26:21 10° NNW 21:26:58 13° NNW 21:26:58 13° NNW visible
30 Nov 3.6 17:39:04 10° W 17:43:56 29° NNW 17:48:01 13° NNE visible
30 Nov 3.9 19:25:31 10° NW 19:29:44 21° N 19:29:47 21° N visible
30 Nov 4.8 21:10:35 10° NNW 21:11:32 14° NNW 21:11:32 14° NNW visible
01 Dec 3.6 17:23:14 10° W 17:28:08 29° NNW 17:32:36 12° NNE visible
01 Dec 3.9 19:09:43 10° NW 19:13:56 21° N 19:14:21 21° N visible
01 Dec 4.6 20:54:50 10° NW 20:56:06 16° NNW 20:56:06 16° NNW visible
02 Dec 3.5 17:07:24 10° W 17:12:20 30° NNW 17:17:10 11° NNE visible
02 Dec 3.8 18:53:54 10° NW 18:58:07 21° N 18:58:56 20° N visible
02 Dec 4.5 20:39:04 10° NW 20:40:41 17° NNW 20:40:41 17° NNW visible
03 Dec 3.5 16:51:35 10° W 16:56:32 31° NNW 17:01:32 10° NNE visible
03 Dec 3.8 18:38:05 10° NW 18:42:18 21° N 18:43:30 20° NNE visible
03 Dec 4.3 20:23:18 10° NW 20:25:16 19° NNW 20:25:16 19° NNW visible
04 Dec 3.4 16:35:45 10° W 16:40:45 31° NNW 16:45:47 10° NNE visible
04 Dec 3.8 18:22:16 10° NW 18:26:29 21° N 18:28:05 19° NNE visible
04 Dec 4.2 20:07:33 10° NW 20:09:51 20° NNW 20:09:51 20° NNW visible
05 Dec 3.4 16:19:55 10° W 16:24:57 32° NNW 16:30:01 10° NNE visible
05 Dec 3.8 18:06:26 10° NW 18:10:40 21° N 18:12:41 18° NNE visible
05 Dec 4.0 19:51:46 10° NW 19:54:26 22° N 19:54:26 22° N visible
05 Dec 5.0 21:35:57 10° NW 21:36:11 11° NW 21:36:11 11° NW visible
